Location: Stilling
(56.0622°N, 9.9882°E)
Time: 11:37:05
(UTC+00:00)

Cosmos 2263 - Pass Details

Date: 13 July 2020
Orbit: 830 x 866 km, 70.9° (Epoch: 06 August)

Event Time Altitude Azimuth Distance (km) Brightness Sun altitude
Rises 22:17:47 0° 324° (NW) 3,437 8.9 -11.0°
Reaches altitude 10° 22:20:15 10° 321° (NW) 2,503 7.8 -11.1°
Maximum altitude 22:25:56 63° 243° (WSW) 965 4.4 -11.3°
Enters shadow 22:30:39 15° 165° (SSE) 2,152 5.6 -11.4°
